User: anonymous   Login
Location: CNYAC Observatory
(43.2150°N, 74.9500°W)
Time: 01:46:02
(UTC-04:00)
Language:

Meteor 1-22 Rocket - Orbit

View from above orbital plane
View from above orbital plane
View from above satellite
View from above satellite

Ground track
Ground track

The orbit data is extracted from the following two-line orbital elements,

1 08294U 75087B   15088.14496100  .00000116  00000-0  56905-4 0  9994
2 08294 081.2091 093.1257 0105902 168.9700 191.3829 14.08506651 30676
Epoch (UTC): 29 March 2015 03:28:44
Eccentricity: 0.0105902
inclination: 81.2091°
perigee height: 788 km
apogee height: 941 km
right ascension of ascending node: 93.1257°
argument of perigee: 168.9700°
revolutions per day: 14.08506651
mean anomaly at epoch: 191.3829°
orbit number at epoch: 3067

The dashed part of the orbit path shows where the satellite is in the earth's shadow,  

DLR